Time,TemperatureF,DewpointF,PressureIn,WindDirection,WindDirectionDegrees,WindSpeedMPH,WindSpeedGustMPH,Humidity,HourlyPrecipIn,Conditions,Clouds,dailyrainin,SoftwareType,DateUTC
2013-11-26 00:00:00,28.6,26.0,30.15,WNW,294,0.0,0.0,90,0.00,,,0.01,Wunderground v.1.15,2013-11-26 06:00:00,
2013-11-26 00:05:00,28.5,25.7,30.15,WNW,294,0.0,0.0,89,0.00,,,0.00,Wunderground v.1.15,2013-11-26 06:05:00,
2013-11-26 00:10:00,28.5,25.7,30.15,WNW,295,0.0,0.0,89,0.00,,,0.00,Wunderground v.1.15,2013-11-26 06:10:00,
2013-11-26 00:15:00,28.5,25.7,30.15,WNW,294,0.0,0.0,89,0.00,,,0.00,Wunderground v.1.15,2013-11-26 06:15:00,
2013-11-26 00:20:00,28.5,25.7,30.15,WNW,294,0.0,0.0,89,0.00,,,0.00,Wunderground v.1.15,2013-11-26 06:20:00,
2013-11-26 00:25:00,28.4,25.6,30.15,WNW,294,0.0,0.0,89,0.00,,,0.00,Wunderground v.1.15,2013-11-26 06:25:00,
2013-11-26 00:30:00,28.3,25.5,30.15,WNW,294,0.0,0.0,89,0.00,,,0.00,Wunderground v.1.15,2013-11-26 06:30:00,
2013-11-26 00:35:00,28.3,25.5,30.15,WNW,295,0.0,0.0,89,0.00,,,0.00,Wunderground v.1.15,2013-11-26 06:35:00,
2013-11-26 00:40:00,28.3,25.5,30.15,WNW,294,0.0,0.0,89,0.00,,,0.00,Wunderground v.1.15,2013-11-26 06:40:00,
2013-11-26 00:50:00,28.3,25.5,30.15,WNW,295,0.0,0.0,89,0.00,,,0.00,Wunderground v.1.15,2013-11-26 06:50:00,
2013-11-26 00:55:00,28.2,25.1,30.15,WNW,295,0.0,0.0,88,0.00,,,0.00,Wunderground v.1.15,2013-11-26 06:55:00,
2013-11-26 01:00:00,27.9,24.8,30.15,WNW,295,0.0,0.0,88,0.00,,,0.00,Wunderground v.1.15,2013-11-26 07:00:00,
2013-11-26 01:05:00,27.6,24.5,30.15,WNW,295,0.0,0.0,88,0.00,,,0.00,Wunderground v.1.15,2013-11-26 07:05:00,
2013-11-26 01:10:00,27.4,24.3,30.15,WNW,294,0.0,0.0,88,0.00,,,0.00,Wunderground v.1.15,2013-11-26 07:10:00,
2013-11-26 01:15:00,27.3,24.5,30.15,WNW,294,0.0,0.0,89,0.00,,,0.00,Wunderground v.1.15,2013-11-26 07:15:00,
2013-11-26 01:25:00,27.2,24.4,30.15,WNW,294,0.0,0.0,89,0.00,,,0.00,Wunderground v.1.15,2013-11-26 07:25:00,
2013-11-26 01:30:00,27.1,24.3,30.15,WNW,294,0.0,0.0,89,0.00,,,0.00,Wunderground v.1.15,2013-11-26 07:30:00,
2013-11-26 01:35:00,27.0,24.2,30.15,WNW,294,0.0,0.0,89,0.00,,,0.00,Wunderground v.1.15,2013-11-26 07:35:00,
2013-11-26 01:40:00,27.0,24.2,30.15,WNW,294,0.0,0.0,89,0.00,,,0.00,Wunderground v.1.15,2013-11-26 07:40:00,
2013-11-26 01:50:00,27.0,24.2,30.16,WNW,294,0.0,0.0,89,0.00,,,0.00,Wunderground v.1.15,2013-11-26 07:50:00,
2013-11-26 01:55:00,27.0,24.2,30.16,NW,315,0.0,0.0,89,0.00,,,0.00,Wunderground v.1.15,2013-11-26 07:55:00,
2013-11-26 02:00:00,26.9,24.1,30.16,NW,315,0.0,0.0,89,0.00,,,0.00,Wunderground v.1.15,2013-11-26 08:00:00,
2013-11-26 02:05:00,26.9,24.1,30.16,NW,320,0.0,0.0,89,0.00,,,0.00,Wunderground v.1.15,2013-11-26 08:05:00,
2013-11-26 02:10:00,26.9,24.1,30.16,NW,326,0.0,0.0,89,0.00,,,0.00,Wunderground v.1.15,2013-11-26 08:10:00,
2013-11-26 02:15:00,26.8,24.0,30.16,NW,326,0.0,0.0,89,0.00,,,0.00,Wunderground v.1.15,2013-11-26 08:15:00,
2013-11-26 02:20:00,26.6,23.5,30.16,NW,326,0.0,0.0,88,0.00,,,0.00,Wunderground v.1.15,2013-11-26 08:20:00,
2013-11-26 02:30:00,26.3,23.2,30.16,NW,326,0.0,0.0,88,0.00,,,0.00,Wunderground v.1.15,2013-11-26 08:30:00,
2013-11-26 02:35:00,26.1,23.0,30.15,NW,326,0.0,0.0,88,0.00,,,0.00,Wunderground v.1.15,2013-11-26 08:35:00,
2013-11-26 02:40:00,25.9,22.8,30.16,NW,326,0.0,0.0,88,0.00,,,0.00,Wunderground v.1.15,2013-11-26 08:40:00,
2013-11-26 02:45:00,25.8,22.7,30.16,NW,326,0.0,0.0,88,0.00,,,0.00,Wunderground v.1.15,2013-11-26 08:45:00,
2013-11-26 02:50:00,25.8,22.7,30.15,NW,326,0.0,0.0,88,0.00,,,0.00,Wunderground v.1.15,2013-11-26 08:50:00,
2013-11-26 02:55:00,25.8,22.7,30.15,NW,326,0.0,0.0,88,0.00,,,0.00,Wunderground v.1.15,2013-11-26 08:55:00,
2013-11-26 03:00:00,25.7,22.6,30.15,NW,326,0.0,0.0,88,0.00,,,0.00,Wunderground v.1.15,2013-11-26 09:00:00,
2013-11-26 03:05:00,25.7,22.6,30.15,NW,326,0.0,0.0,88,0.00,,,0.00,Wunderground v.1.15,2013-11-26 09:05:00,
2013-11-26 03:15:00,25.7,22.6,30.15,NW,326,0.0,0.0,88,0.00,,,0.00,Wunderground v.1.15,2013-11-26 09:15:00,
2013-11-26 03:20:00,25.7,22.6,30.15,NW,326,0.0,0.0,88,0.00,,,0.00,Wunderground v.1.15,2013-11-26 09:20:00,
2013-11-26 03:25:00,25.7,22.6,30.15,NW,322,0.0,0.0,88,0.00,,,0.00,Wunderground v.1.15,2013-11-26 09:25:00,
2013-11-26 03:30:00,25.8,22.7,30.15,NW,322,0.0,0.0,88,0.00,,,0.00,Wunderground v.1.15,2013-11-26 09:30:00,
2013-11-26 03:35:00,25.9,22.8,30.14,NW,322,0.0,0.0,88,0.00,,,0.00,Wunderground v.1.15,2013-11-26 09:35:00,
2013-11-26 03:40:00,26.0,22.9,30.14,NW,321,0.0,0.0,88,0.00,,,0.00,Wunderground v.1.15,2013-11-26 09:40:00,
2013-11-26 03:50:00,26.2,23.1,30.14,NW,325,0.0,0.0,88,0.00,,,0.00,Wunderground v.1.15,2013-11-26 09:50:00,
2013-11-26 03:55:00,26.2,22.9,30.14,NW,311,0.0,0.0,87,0.00,,,0.00,Wunderground v.1.15,2013-11-26 09:55:00,
2013-11-26 04:00:00,26.2,22.9,30.14,NW,313,1.0,1.0,87,0.00,,,0.00,Wunderground v.1.15,2013-11-26 10:00:00,
2013-11-26 04:05:00,26.2,22.9,30.14,NNW,331,0.0,1.0,87,0.00,,,0.00,Wunderground v.1.15,2013-11-26 10:05:00,
2013-11-26 04:15:00,26.2,22.9,30.14,NW,323,0.0,0.0,87,0.00,,,0.00,Wunderground v.1.15,2013-11-26 10:15:00,
2013-11-26 04:20:00,26.3,23.0,30.14,NW,323,0.0,3.0,87,0.00,,,0.00,Wunderground v.1.15,2013-11-26 10:20:00,
2013-11-26 04:25:00,26.4,23.1,30.14,WNW,303,0.0,3.0,87,0.00,,,0.00,Wunderground v.1.15,2013-11-26 10:25:00,
2013-11-26 04:30:00,26.5,23.2,30.14,NNW,334,1.0,1.0,87,0.00,,,0.00,Wunderground v.1.15,2013-11-26 10:30:00,
2013-11-26 04:35:00,26.6,23.3,30.14,NW,311,1.0,1.0,87,0.00,,,0.00,Wunderground v.1.15,2013-11-26 10:35:00,
2013-11-26 04:40:00,26.9,23.5,30.14,NW,314,1.0,1.0,87,0.00,,,0.00,Wunderground v.1.15,2013-11-26 10:40:00,
2013-11-26 04:50:00,27.4,24.0,30.15,NNW,345,1.0,1.0,87,0.00,,,0.00,Wunderground v.1.15,2013-11-26 10:50:00,
2013-11-26 04:55:00,27.6,24.2,30.15,NW,308,0.0,1.0,87,0.00,,,0.00,Wunderground v.1.15,2013-11-26 10:55:00,
2013-11-26 05:05:00,28.3,24.6,30.15,NW,316,0.0,0.0,86,0.00,,,0.00,Wunderground v.1.15,2013-11-26 11:05:00,
2013-11-26 05:10:00,28.5,24.6,30.15,NW,322,0.0,0.0,85,0.00,,,0.00,Wunderground v.1.15,2013-11-26 11:10:00,
2013-11-26 05:15:00,28.7,24.8,30.15,NNW,337,0.0,0.0,85,0.00,,,0.00,Wunderground v.1.15,2013-11-26 11:15:00,
2013-11-26 05:20:00,28.9,24.7,30.15,NW,326,0.0,0.0,84,0.00,,,0.00,Wunderground v.1.15,2013-11-26 11:20:00,
2013-11-26 05:25:00,29.1,24.9,30.15,NW,323,0.0,0.0,84,0.00,,,0.00,Wunderground v.1.15,2013-11-26 11:25:00,
2013-11-26 05:30:00,29.2,25.0,30.15,WNW,302,1.0,1.0,84,0.00,,,0.00,Wunderground v.1.15,2013-11-26 11:30:00,
2013-11-26 05:40:00,29.3,24.8,30.15,NNW,334,0.0,0.0,83,0.00,,,0.00,Wunderground v.1.15,2013-11-26 11:40:00,
2013-11-26 05:45:00,29.4,24.9,30.16,NW,312,0.0,0.0,83,0.00,,,0.00,Wunderground v.1.15,2013-11-26 11:45:00,
2013-11-26 05:50:00,29.5,25.0,30.16,NNW,329,0.0,0.0,83,0.00,,,0.00,Wunderground v.1.15,2013-11-26 11:50:00,
2013-11-26 05:55:00,29.6,25.1,30.16,NNW,335,0.0,1.0,83,0.00,,,0.00,Wunderground v.1.15,2013-11-26 11:55:00,
2013-11-26 06:00:00,29.7,24.9,30.17,NW,309,1.0,1.0,82,0.00,,,0.00,Wunderground v.1.15,2013-11-26 12:00:00,
2013-11-26 06:05:00,30.0,25.2,30.17,NW,321,1.0,1.0,82,0.00,,,0.00,Wunderground v.1.15,2013-11-26 12:05:00,
2013-11-26 06:15:00,30.2,25.4,30.17,North,350,3.0,4.0,82,0.00,,,0.00,Wunderground v.1.15,2013-11-26 12:15:00,
2013-11-26 06:20:00,30.1,25.3,30.17,NNE,19,2.0,2.0,82,0.00,,,0.00,Wunderground v.1.15,2013-11-26 12:20:00,
2013-11-26 06:25:00,30.1,25.3,30.18,NW,315,1.0,3.0,82,0.00,,,0.00,Wunderground v.1.15,2013-11-26 12:25:00,
2013-11-26 06:35:00,30.1,25.0,30.18,NNW,347,1.0,1.0,81,0.00,,,0.00,Wunderground v.1.15,2013-11-26 12:35:00,
2013-11-26 06:40:00,30.1,25.0,30.18,NNW,336,0.0,3.0,81,0.00,,,0.00,Wunderground v.1.15,2013-11-26 12:40:00,
2013-11-26 06:45:00,30.1,24.7,30.19,NNW,338,1.0,4.0,80,0.00,,,0.00,Wunderground v.1.15,2013-11-26 12:45:00,
2013-11-26 06:50:00,30.1,24.7,30.19,NNE,28,2.0,2.0,80,0.00,,,0.00,Wunderground v.1.15,2013-11-26 12:50:00,
2013-11-26 06:55:00,30.1,24.4,30.20,NNW,333,2.0,2.0,79,0.00,,,0.00,Wunderground v.1.15,2013-11-26 12:55:00,
2013-11-26 07:00:00,30.0,24.3,30.19,NNW,344,2.0,8.0,79,0.00,,,0.00,Wunderground v.1.15,2013-11-26 13:00:00,
2013-11-26 07:10:00,29.9,24.2,30.20,NNW,331,4.0,10.0,79,0.00,,,0.00,Wunderground v.1.15,2013-11-26 13:10:00,
2013-11-26 07:15:00,29.9,24.2,30.20,North,5,5.0,10.0,79,0.00,,,0.00,Wunderground v.1.15,2013-11-26 13:15:00,
2013-11-26 07:20:00,29.8,24.1,30.20,NW,319,6.0,6.0,79,0.00,,,0.00,Wunderground v.1.15,2013-11-26 13:20:00,
2013-11-26 07:25:00,29.6,23.6,30.20,NNW,345,7.0,7.0,78,0.00,,,0.00,Wunderground v.1.15,2013-11-26 13:25:00,
2013-11-26 07:35:00,29.1,23.4,30.20,NNW,336,6.0,8.0,79,0.00,,,0.00,Wunderground v.1.15,2013-11-26 13:35:00,
2013-11-26 07:40:00,28.8,22.8,30.20,North,355,6.0,6.0,78,0.00,,,0.00,Wunderground v.1.15,2013-11-26 13:40:00,
2013-11-26 07:45:00,28.6,22.3,30.20,NNW,346,7.0,7.0,77,0.00,,,0.00,Wunderground v.1.15,2013-11-26 13:45:00,
2013-11-26 07:54:00,28.4,22.1,30.20,North,355,6.0,7.0,77,0.00,,,0.00,Wunderground v.1.15,2013-11-26 13:54:00,
2013-11-26 08:00:00,28.3,22.0,30.21,NNW,340,7.0,8.0,77,0.00,,,0.00,Wunderground v.1.15,2013-11-26 14:00:00,
2013-11-26 08:05:00,28.3,22.0,30.21,NNW,340,7.0,8.0,77,0.00,,,0.00,Wunderground v.1.15,2013-11-26 14:05:00,
2013-11-26 08:10:00,28.3,22.0,30.21,NW,311,7.0,10.0,77,0.00,,,0.00,Wunderground v.1.15,2013-11-26 14:10:00,
2013-11-26 08:15:00,28.3,22.0,30.21,NNW,346,6.0,10.0,77,0.00,,,0.00,Wunderground v.1.15,2013-11-26 14:15:00,
2013-11-26 08:20:00,28.4,22.1,30.22,NNW,341,6.0,7.0,77,0.00,,,0.00,Wunderground v.1.15,2013-11-26 14:20:00,
2013-11-26 08:25:00,28.4,22.1,30.22,NW,322,8.0,8.0,77,0.00,,,0.00,Wunderground v.1.15,2013-11-26 14:25:00,
2013-11-26 08:35:00,28.3,21.7,30.22,NW,323,8.0,9.0,76,0.00,,,0.00,Wunderground v.1.15,2013-11-26 14:35:00,
2013-11-26 08:40:00,28.2,21.3,30.23,NNW,338,8.0,8.0,75,0.00,,,0.00,Wunderground v.1.15,2013-11-26 14:40:00,
2013-11-26 08:45:00,28.0,20.5,30.23,NNW,338,9.0,10.0,73,0.00,,,0.00,Wunderground v.1.15,2013-11-26 14:45:00,
2013-11-26 08:50:00,27.9,20.4,30.23,NW,323,10.0,10.0,73,0.00,,,0.00,Wunderground v.1.15,2013-11-26 14:50:00,
2013-11-26 08:55:00,27.7,20.2,30.24,NNW,328,9.0,10.0,73,0.00,,,0.00,Wunderground v.1.15,2013-11-26 14:55:00,
2013-11-26 09:00:00,27.6,20.1,30.24,NNW,337,8.0,18.0,73,0.00,,,0.00,Wunderground v.1.15,2013-11-26 15:00:00,
2013-11-26 09:05:00,27.4,19.6,30.24,NW,315,9.0,18.0,72,0.00,,,0.00,Wunderground v.1.15,2013-11-26 15:05:00,
2013-11-26 09:15:00,27.3,19.8,30.24,NNW,329,9.0,10.0,73,0.00,,,0.00,Wunderground v.1.15,2013-11-26 15:15:00,
2013-11-26 09:20:00,27.3,20.1,30.24,North,355,8.0,11.0,74,0.00,,,0.00,Wunderground v.1.15,2013-11-26 15:20:00,
2013-11-26 09:25:00,27.1,19.3,30.25,NNW,331,9.0,11.0,72,0.00,,,0.00,Wunderground v.1.15,2013-11-26 15:25:00,
2013-11-26 09:30:00,27.0,19.5,30.24,NW,322,9.0,9.0,73,0.00,,,0.00,Wunderground v.1.15,2013-11-26 15:30:00,
2013-11-26 09:35:00,26.7,19.2,30.25,NNW,337,9.0,9.0,73,0.00,,,0.00,Wunderground v.1.15,2013-11-26 15:35:00,
2013-11-26 09:40:00,26.3,18.8,30.25,NNW,344,10.0,13.0,73,0.00,,,0.00,Wunderground v.1.15,2013-11-26 15:40:00,
2013-11-26 09:49:00,25.4,17.3,30.26,North,355,10.0,10.0,71,0.00,,,0.00,Wunderground v.1.15,2013-11-26 15:49:00,
2013-11-26 09:54:00,25.5,16.7,30.26,WNW,297,11.0,11.0,69,0.00,,,0.00,Wunderground v.1.15,2013-11-26 15:54:00,
2013-11-26 10:00:00,25.5,16.4,30.26,WNW,303,11.0,18.0,68,0.00,,,0.00,Wunderground v.1.15,2013-11-26 16:00:00,
2013-11-26 10:05:00,25.3,15.5,30.26,NNE,15,12.0,18.0,66,0.00,,,0.00,Wunderground v.1.15,2013-11-26 16:05:00,
2013-11-26 10:10:00,25.3,15.9,30.27,NW,319,11.0,16.0,67,0.00,,,0.00,Wunderground v.1.15,2013-11-26 16:10:00,
2013-11-26 10:15:00,25.4,15.6,30.27,NNW,334,10.0,16.0,66,0.00,,,0.00,Wunderground v.1.15,2013-11-26 16:15:00,
2013-11-26 10:20:00,25.3,15.5,30.26,North,350,11.0,11.0,66,0.00,,,0.00,Wunderground v.1.15,2013-11-26 16:20:00,
2013-11-26 10:25:00,25.3,15.9,30.27,NW,326,10.0,11.0,67,0.00,,,0.00,Wunderground v.1.15,2013-11-26 16:25:00,
2013-11-26 10:34:00,25.3,15.5,30.27,NNW,343,10.0,14.0,66,0.00,,,0.00,Wunderground v.1.15,2013-11-26 16:34:00,
2013-11-26 10:40:00,25.2,15.4,30.27,NNW,340,12.0,12.0,66,0.00,,,0.00,Wunderground v.1.15,2013-11-26 16:40:00,
2013-11-26 10:45:00,25.3,15.5,30.27,North,360,11.0,16.0,66,0.00,,,0.00,Wunderground v.1.15,2013-11-26 16:45:00,
2013-11-26 10:50:00,25.1,15.0,30.27,NNW,343,12.0,12.0,65,0.00,,,0.00,Wunderground v.1.15,2013-11-26 16:50:00,
2013-11-26 10:55:00,25.2,15.4,30.27,NNE,32,11.0,12.0,66,0.00,,,0.00,Wunderground v.1.15,2013-11-26 16:55:00,
2013-11-26 11:05:00,25.4,15.3,30.27,WNW,293,9.0,16.0,65,0.00,,,0.00,Wunderground v.1.15,2013-11-26 17:05:00,
2013-11-26 11:14:00,25.1,15.0,30.27,NNW,336,12.0,13.0,65,0.00,,,0.00,Wunderground v.1.15,2013-11-26 17:14:00,
2013-11-26 11:20:00,25.4,16.0,30.27,NW,319,10.0,10.0,67,0.00,,,0.00,Wunderground v.1.15,2013-11-26 17:20:00,
2013-11-26 11:25:00,25.3,15.2,30.27,NW,311,10.0,12.0,65,0.00,,,0.00,Wunderground v.1.15,2013-11-26 17:25:00,
2013-11-26 11:30:00,25.6,15.8,30.28,NW,318,10.0,12.0,66,0.00,,,0.00,Wunderground v.1.15,2013-11-26 17:30:00,
2013-11-26 11:35:00,25.8,14.9,30.28,NNW,336,7.0,12.0,63,0.00,,,0.00,Wunderground v.1.15,2013-11-26 17:35:00,
2013-11-26 11:40:00,25.7,14.1,30.28,North,349,9.0,9.0,61,0.00,,,0.00,Wunderground v.1.15,2013-11-26 17:40:00,
2013-11-26 11:45:00,25.3,12.6,30.28,NNW,343,11.0,11.0,58,0.00,,,0.00,Wunderground v.1.15,2013-11-26 17:45:00,
2013-11-26 11:54:00,25.5,12.4,30.28,NW,317,10.0,13.0,57,0.00,,,0.00,Wunderground v.1.15,2013-11-26 17:54:00,
2013-11-26 11:59:00,25.4,11.9,30.28,NNW,345,10.0,12.0,56,0.00,,,0.00,Wunderground v.1.15,2013-11-26 17:59:00,
2013-11-26 12:05:00,25.4,12.3,30.27,North,5,10.0,12.0,57,0.00,,,0.00,Wunderground v.1.15,2013-11-26 18:05:00,
2013-11-26 12:10:00,25.4,11.9,30.27,NW,306,10.0,10.0,56,0.00,,,0.00,Wunderground v.1.15,2013-11-26 18:10:00,
2013-11-26 12:15:00,25.7,12.9,30.27,NW,315,9.0,11.0,58,0.00,,,0.00,Wunderground v.1.15,2013-11-26 18:15:00,
2013-11-26 12:20:00,25.5,12.4,30.27,NW,323,9.0,11.0,57,0.00,,,0.00,Wunderground v.1.15,2013-11-26 18:20:00,
2013-11-26 12:25:00,25.4,12.7,30.27,North,355,11.0,11.0,58,0.00,,,0.00,Wunderground v.1.15,2013-11-26 18:25:00,
2013-11-26 12:30:00,25.4,11.9,30.26,NW,321,12.0,17.0,56,0.00,,,0.00,Wunderground v.1.15,2013-11-26 18:30:00,
2013-11-26 12:40:00,25.5,12.4,30.26,NW,319,11.0,11.0,57,0.00,,,0.00,Wunderground v.1.15,2013-11-26 18:40:00,
2013-11-26 12:45:00,25.7,12.2,30.26,North,351,10.0,15.0,56,0.00,,,0.00,Wunderground v.1.15,2013-11-26 18:45:00,
2013-11-26 12:50:00,25.7,12.6,30.26,NW,315,10.0,10.0,57,0.00,,,0.00,Wunderground v.1.15,2013-11-26 18:50:00,
2013-11-26 12:55:00,25.6,12.5,30.26,NW,318,11.0,15.0,57,0.00,,,0.00,Wunderground v.1.15,2013-11-26 18:55:00,
2013-11-26 13:00:00,25.7,12.9,30.26,NNW,342,10.0,10.0,58,0.00,,,0.00,Wunderground v.1.15,2013-11-26 19:00:00,
2013-11-26 13:05:00,26.0,13.2,30.26,North,349,9.0,13.0,58,0.00,,,0.00,Wunderground v.1.15,2013-11-26 19:05:00,
2013-11-26 13:10:00,25.8,12.6,30.26,NNW,331,11.0,11.0,57,0.00,,,0.00,Wunderground v.1.15,2013-11-26 19:10:00,
2013-11-26 13:19:00,25.7,12.6,30.26,NNW,332,11.0,14.0,57,0.00,,,0.00,Wunderground v.1.15,2013-11-26 19:19:00,
2013-11-26 13:24:00,25.7,13.3,30.26,NW,317,10.0,14.0,59,0.00,,,0.00,Wunderground v.1.15,2013-11-26 19:24:00,
2013-11-26 13:29:00,25.6,12.9,30.26,NNW,342,12.0,15.0,58,0.00,,,0.00,Wunderground v.1.15,2013-11-26 19:29:00,
2013-11-26 13:35:00,25.5,12.8,30.26,NNW,336,12.0,22.0,58,0.00,,,0.00,Wunderground v.1.15,2013-11-26 19:35:00,
2013-11-26 13:39:00,25.5,12.8,30.26,NNW,348,12.0,12.0,58,0.00,,,0.00,Wunderground v.1.15,2013-11-26 19:39:00,
2013-11-26 13:45:00,25.5,13.1,30.26,West,273,11.0,12.0,59,0.00,,,0.00,Wunderground v.1.15,2013-11-26 19:45:00,
2013-11-26 13:50:00,25.3,13.3,30.26,NNE,15,10.0,10.0,60,0.00,,,0.00,Wunderground v.1.15,2013-11-26 19:50:00,
2013-11-26 13:55:00,25.5,13.5,30.26,WNW,302,10.0,10.0,60,0.00,,,0.00,Wunderground v.1.15,2013-11-26 19:55:00,
2013-11-26 14:00:00,25.6,13.2,30.27,NNW,344,10.0,18.0,59,0.00,,,0.00,Wunderground v.1.15,2013-11-26 20:00:00,
2013-11-26 14:05:00,25.5,12.8,30.27,NNW,344,10.0,18.0,58,0.00,,,0.00,Wunderground v.1.15,2013-11-26 20:05:00,
2013-11-26 14:10:00,25.7,12.9,30.27,NNW,343,10.0,10.0,58,0.00,,,0.00,Wunderground v.1.15,2013-11-26 20:10:00,
2013-11-26 14:20:00,25.3,12.2,30.27,North,349,12.0,12.0,57,0.00,,,0.00,Wunderground v.1.15,2013-11-26 20:20:00,
2013-11-26 14:29:00,25.8,13.0,30.27,NW,319,8.0,9.0,58,0.00,,,0.00,Wunderground v.1.15,2013-11-26 20:29:00,
2013-11-26 14:35:00,25.8,12.6,30.27,NNW,329,8.0,11.0,57,0.00,,,0.00,Wunderground v.1.15,2013-11-26 20:35:00,
2013-11-26 14:40:00,25.9,12.7,30.27,North,349,9.0,9.0,57,0.00,,,0.00,Wunderground v.1.15,2013-11-26 20:40:00,
2013-11-26 14:45:00,26.1,12.5,30.27,NW,326,8.0,15.0,56,0.00,,,0.00,Wunderground v.1.15,2013-11-26 20:45:00,
2013-11-26 14:55:00,25.8,12.2,30.27,NW,324,9.0,10.0,56,0.00,,,0.00,Wunderground v.1.15,2013-11-26 20:55:00,
2013-11-26 15:00:00,25.8,12.2,30.27,NNW,346,10.0,10.0,56,0.00,,,0.00,Wunderground v.1.15,2013-11-26 21:00:00,
2013-11-26 15:05:00,25.8,12.2,30.27,NNW,331,9.0,10.0,56,0.00,,,0.00,Wunderground v.1.15,2013-11-26 21:05:00,
2013-11-26 15:10:00,25.7,11.7,30.27,NNW,336,9.0,10.0,55,0.00,,,0.00,Wunderground v.1.15,2013-11-26 21:10:00,
2013-11-26 15:15:00,25.8,12.2,30.27,WNW,292,10.0,10.0,56,0.00,,,0.00,Wunderground v.1.15,2013-11-26 21:15:00,
2013-11-26 15:20:00,25.9,11.9,30.27,NW,322,9.0,10.0,55,0.00,,,0.00,Wunderground v.1.15,2013-11-26 21:20:00,
2013-11-26 15:29:00,25.8,11.8,30.28,NNW,348,9.0,10.0,55,0.00,,,0.00,Wunderground v.1.15,2013-11-26 21:29:00,
2013-11-26 15:34:00,25.8,11.8,30.28,NNW,347,9.0,10.0,55,0.00,,,0.00,Wunderground v.1.15,2013-11-26 21:34:00,
2013-11-26 15:40:00,25.8,11.8,30.28,NW,325,9.0,9.0,55,0.00,,,0.00,Wunderground v.1.15,2013-11-26 21:40:00,
2013-11-26 15:45:00,25.8,12.2,30.28,North,355,7.0,10.0,56,0.00,,,0.00,Wunderground v.1.15,2013-11-26 21:45:00,
2013-11-26 15:50:00,25.6,11.7,30.28,NW,324,8.0,9.0,55,0.00,,,0.00,Wunderground v.1.15,2013-11-26 21:50:00,
2013-11-26 15:55:00,25.4,11.9,30.29,NE,40,7.0,10.0,56,0.00,,,0.00,Wunderground v.1.15,2013-11-26 21:55:00,
2013-11-26 16:05:00,25.1,12.0,30.29,NNW,346,6.0,8.0,57,0.00,,,0.00,Wunderground v.1.15,2013-11-26 22:05:00,
2013-11-26 16:10:00,24.9,11.4,30.30,NNW,340,8.0,9.0,56,0.00,,,0.00,Wunderground v.1.15,2013-11-26 22:10:00,
2013-11-26 16:15:00,24.7,13.5,30.29,NNW,327,8.0,11.0,62,0.00,,,0.00,Wunderground v.1.15,2013-11-26 22:15:00,
2013-11-26 16:25:00,24.5,12.2,30.30,WNW,302,7.0,7.0,59,0.00,,,0.00,Wunderground v.1.15,2013-11-26 22:25:00,
2013-11-26 16:34:00,24.3,11.6,30.30,NW,322,7.0,7.0,58,0.00,,,0.00,Wunderground v.1.15,2013-11-26 22:34:00,
2013-11-26 16:44:00,24.1,11.8,30.30,NNW,338,6.0,7.0,59,0.00,,,0.00,Wunderground v.1.15,2013-11-26 22:44:00,
2013-11-26 16:50:00,24.0,11.7,30.30,NW,317,7.0,8.0,59,0.00,,,0.00,Wunderground v.1.15,2013-11-26 22:50:00,
2013-11-26 16:55:00,23.8,11.9,30.30,North,355,7.0,8.0,60,0.00,,,0.00,Wunderground v.1.15,2013-11-26 22:55:00,
2013-11-26 17:00:00,23.7,11.8,30.30,NNW,340,6.0,6.0,60,0.00,,,0.00,Wunderground v.1.15,2013-11-26 23:00:00,
2013-11-26 17:05:00,23.6,12.1,30.30,NNW,338,7.0,7.0,61,0.00,,,0.00,Wunderground v.1.15,2013-11-26 23:05:00,
2013-11-26 17:15:00,23.3,12.2,30.31,NW,322,6.0,10.0,62,0.00,,,0.00,Wunderground v.1.15,2013-11-26 23:15:00,
2013-11-26 17:20:00,23.1,12.0,30.31,NNW,331,6.0,6.0,62,0.00,,,0.00,Wunderground v.1.15,2013-11-26 23:20:00,
2013-11-26 17:25:00,23.0,11.9,30.32,NNW,330,7.0,8.0,62,0.00,,,0.00,Wunderground v.1.15,2013-11-26 23:25:00,
2013-11-26 17:34:00,22.7,12.0,30.32,North,355,6.0,7.0,63,0.00,,,0.00,Wunderground v.1.15,2013-11-26 23:34:00,
2013-11-26 17:40:00,22.5,13.9,30.32,NNW,340,5.0,8.0,69,0.00,,,0.00,Wunderground v.1.15,2013-11-26 23:40:00,
2013-11-26 17:45:00,22.3,12.3,30.32,NNW,329,6.0,8.0,65,0.00,,,0.00,Wunderground v.1.15,2013-11-26 23:45:00,
2013-11-26 17:50:00,22.2,12.2,30.32,NW,313,6.0,7.0,65,0.00,,,0.00,Wunderground v.1.15,2013-11-26 23:50:00,
2013-11-26 17:55:00,22.0,12.0,30.32,NW,321,7.0,8.0,65,0.00,,,0.00,Wunderground v.1.15,2013-11-26 23:55:00,
2013-11-26 18:00:00,21.9,11.9,30.33,NW,322,6.0,6.0,65,0.00,,,0.00,Wunderground v.1.15,2013-11-27 00:00:00,
2013-11-26 18:10:00,21.7,11.7,30.33,NW,311,6.0,6.0,65,0.00,,,0.00,Wunderground v.1.15,2013-11-27 00:10:00,
2013-11-26 18:15:00,21.6,12.0,30.33,North,355,5.0,7.0,66,0.00,,,0.00,Wunderground v.1.15,2013-11-27 00:15:00,
2013-11-26 18:20:00,21.5,11.9,30.33,NW,317,5.0,6.0,66,0.00,,,0.00,Wunderground v.1.15,2013-11-27 00:20:00,
2013-11-26 18:25:00,21.3,11.7,30.33,WNW,300,5.0,6.0,66,0.00,,,0.00,Wunderground v.1.15,2013-11-27 00:25:00,
2013-11-26 18:30:00,21.2,11.6,30.33,WNW,300,5.0,7.0,66,0.00,,,0.00,Wunderground v.1.15,2013-11-27 00:30:00,
2013-11-26 18:35:00,21.1,11.5,30.33,NW,324,6.0,8.0,66,0.00,,,0.00,Wunderground v.1.15,2013-11-27 00:35:00,
2013-11-26 18:40:00,21.0,11.8,30.34,NW,309,6.0,6.0,67,0.00,,,0.00,Wunderground v.1.15,2013-11-27 00:40:00,
2013-11-26 18:45:00,20.9,11.3,30.34,NNW,329,6.0,6.0,66,0.00,,,0.00,Wunderground v.1.15,2013-11-27 00:45:00,
2013-11-26 18:50:00,20.8,11.6,30.34,North,350,5.0,7.0,67,0.00,,,0.00,Wunderground v.1.15,2013-11-27 00:50:00,
2013-11-26 18:59:00,20.4,11.5,30.34,NNW,331,4.0,5.0,68,0.00,,,0.00,Wunderground v.1.15,2013-11-27 00:59:00,
2013-11-26 19:09:00,20.2,11.3,30.34,NW,311,5.0,5.0,68,0.00,,,0.00,Wunderground v.1.15,2013-11-27 01:09:00,
2013-11-26 19:15:00,20.1,11.2,30.34,NNW,334,5.0,5.0,68,0.00,,,0.00,Wunderground v.1.15,2013-11-27 01:15:00,
2013-11-26 19:20:00,19.9,11.4,30.34,NNW,334,5.0,5.0,69,0.00,,,0.00,Wunderground v.1.15,2013-11-27 01:20:00,
2013-11-26 19:25:00,19.8,11.3,30.34,NNW,346,4.0,5.0,69,0.00,,,0.00,Wunderground v.1.15,2013-11-27 01:25:00,
2013-11-26 19:30:00,19.6,11.1,30.34,North,350,3.0,3.0,69,0.00,,,0.00,Wunderground v.1.15,2013-11-27 01:30:00,
2013-11-26 19:40:00,19.3,11.1,30.35,NNW,337,4.0,4.0,70,0.00,,,0.00,Wunderground v.1.15,2013-11-27 01:40:00,
2013-11-26 19:45:00,19.2,11.0,30.35,NW,315,4.0,6.0,70,0.00,,,0.00,Wunderground v.1.15,2013-11-27 01:45:00,
2013-11-26 19:50:00,19.2,11.0,30.35,NNW,331,4.0,5.0,70,0.00,,,0.00,Wunderground v.1.15,2013-11-27 01:50:00,
2013-11-26 19:55:00,19.2,11.0,30.35,NNW,346,5.0,5.0,70,0.00,,,0.00,Wunderground v.1.15,2013-11-27 01:55:00,
2013-11-26 20:00:00,19.0,10.8,30.35,North,5,4.0,4.0,70,0.00,,,0.00,Wunderground v.1.15,2013-11-27 02:00:00,
2013-11-26 20:09:00,18.9,11.0,30.35,NNW,343,5.0,5.0,71,0.00,,,0.00,Wunderground v.1.15,2013-11-27 02:09:00,
2013-11-26 20:14:00,18.8,10.9,30.35,North,350,4.0,5.0,71,0.00,,,0.00,Wunderground v.1.15,2013-11-27 02:14:00,
2013-11-26 20:20:00,18.8,10.9,30.35,WNW,293,4.0,4.0,71,0.00,,,0.00,Wunderground v.1.15,2013-11-27 02:20:00,
2013-11-26 20:25:00,18.7,10.9,30.35,NW,309,3.0,4.0,71,0.00,,,0.00,Wunderground v.1.15,2013-11-27 02:25:00,
2013-11-26 20:30:00,18.6,10.8,30.35,WNW,292,3.0,4.0,71,0.00,,,0.00,Wunderground v.1.15,2013-11-27 02:30:00,
2013-11-26 20:35:00,18.6,10.8,30.35,NW,325,3.0,4.0,71,0.00,,,0.00,Wunderground v.1.15,2013-11-27 02:35:00,
2013-11-26 20:45:00,18.4,10.6,30.35,NW,317,4.0,6.0,71,0.00,,,0.00,Wunderground v.1.15,2013-11-27 02:45:00,
2013-11-26 20:50:00,18.4,10.6,30.35,NW,310,3.0,4.0,71,0.00,,,0.00,Wunderground v.1.15,2013-11-27 02:50:00,
2013-11-26 20:55:00,18.3,10.5,30.35,NW,312,3.0,4.0,71,0.00,,,0.00,Wunderground v.1.15,2013-11-27 02:55:00,
2013-11-26 21:00:00,18.2,10.4,30.35,NW,317,3.0,3.0,71,0.00,,,0.00,Wunderground v.1.15,2013-11-27 03:00:00,
2013-11-26 21:05:00,18.1,10.6,30.35,NNE,17,3.0,5.0,72,0.00,,,0.00,Wunderground v.1.15,2013-11-27 03:05:00,
2013-11-26 21:10:00,18.1,10.6,30.35,NW,315,3.0,3.0,72,0.00,,,0.00,Wunderground v.1.15,2013-11-27 03:10:00,
2013-11-26 21:20:00,18.0,10.5,30.35,NW,321,3.0,3.0,72,0.00,,,0.00,Wunderground v.1.15,2013-11-27 03:20:00,
2013-11-26 21:29:00,17.9,10.4,30.36,NW,304,3.0,3.0,72,0.00,,,0.00,Wunderground v.1.15,2013-11-27 03:29:00,
2013-11-26 21:35:00,17.8,10.3,30.36,NW,314,3.0,3.0,72,0.00,,,0.00,Wunderground v.1.15,2013-11-27 03:35:00,
2013-11-26 21:40:00,17.7,10.5,30.36,NW,309,3.0,3.0,73,0.00,,,0.00,Wunderground v.1.15,2013-11-27 03:40:00,
2013-11-26 21:45:00,17.6,10.4,30.36,NNW,344,3.0,3.0,73,0.00,,,0.00,Wunderground v.1.15,2013-11-27 03:45:00,
2013-11-26 21:50:00,17.5,10.3,30.36,NNW,334,2.0,3.0,73,0.00,,,0.00,Wunderground v.1.15,2013-11-27 03:50:00,
2013-11-26 21:55:00,17.4,10.2,30.36,WNW,299,2.0,3.0,73,0.00,,,0.00,Wunderground v.1.15,2013-11-27 03:55:00,
2013-11-26 22:05:00,17.2,10.3,30.37,NW,309,3.0,5.0,74,0.00,,,0.00,Wunderground v.1.15,2013-11-27 04:05:00,
2013-11-26 22:10:00,17.2,10.3,30.37,NW,322,3.0,3.0,74,0.00,,,0.00,Wunderground v.1.15,2013-11-27 04:10:00,
2013-11-26 22:15:00,17.2,10.3,30.36,NW,313,3.0,3.0,74,0.00,,,0.00,Wunderground v.1.15,2013-11-27 04:15:00,
2013-11-26 22:24:00,17.0,10.1,30.37,NW,309,3.0,3.0,74,0.00,,,0.00,Wunderground v.1.15,2013-11-27 04:24:00,
2013-11-26 22:29:00,17.0,10.1,30.37,NNW,327,2.0,2.0,74,0.00,,,0.00,Wunderground v.1.15,2013-11-27 04:29:00,
2013-11-26 22:34:00,16.9,10.3,30.37,NW,326,2.0,2.0,75,0.00,,,0.00,Wunderground v.1.15,2013-11-27 04:34:00,
2013-11-26 22:40:00,16.8,10.2,30.37,WNW,302,2.0,5.0,75,0.00,,,0.00,Wunderground v.1.15,2013-11-27 04:40:00,
2013-11-26 22:45:00,16.8,10.2,30.37,NNW,344,2.0,5.0,75,0.00,,,0.00,Wunderground v.1.15,2013-11-27 04:45:00,
2013-11-26 22:50:00,16.7,10.1,30.37,WNW,288,1.0,1.0,75,0.00,,,0.00,Wunderground v.1.15,2013-11-27 04:50:00,
2013-11-26 22:55:00,16.7,10.1,30.38,NW,321,1.0,1.0,75,0.00,,,0.00,Wunderground v.1.15,2013-11-27 04:55:00,
2013-11-26 23:00:00,16.6,10.1,30.38,NW,307,2.0,3.0,75,0.00,,,0.00,Wunderground v.1.15,2013-11-27 05:00:00,
2013-11-26 23:05:00,16.5,10.0,30.37,NNW,344,3.0,4.0,75,0.00,,,0.00,Wunderground v.1.15,2013-11-27 05:05:00,
2013-11-26 23:10:00,16.5,10.0,30.37,NW,326,3.0,3.0,75,0.00,,,0.00,Wunderground v.1.15,2013-11-27 05:10:00,
2013-11-26 23:15:00,16.5,10.3,30.38,NW,304,3.0,3.0,76,0.00,,,0.00,Wunderground v.1.15,2013-11-27 05:15:00,
2013-11-26 23:19:00,16.4,10.2,30.38,WNW,301,3.0,3.0,76,0.00,,,0.00,Wunderground v.1.15,2013-11-27 05:19:00,
2013-11-26 23:25:00,16.3,10.1,30.38,NW,309,3.0,3.0,76,0.00,,,0.00,Wunderground v.1.15,2013-11-27 05:25:00,
2013-11-26 23:35:00,16.2,10.0,30.38,NW,320,2.0,4.0,76,0.00,,,0.00,Wunderground v.1.15,2013-11-27 05:35:00,
2013-11-26 23:40:00,16.2,10.0,30.38,WNW,291,2.0,2.0,76,0.00,,,0.00,Wunderground v.1.15,2013-11-27 05:40:00,
2013-11-26 23:50:00,16.1,10.2,30.38,WNW,299,3.0,3.0,77,0.00,,,0.00,Wunderground v.1.15,2013-11-27 05:50:00,
2013-11-26 23:55:00,16.0,10.1,30.38,NW,320,3.0,3.0,77,0.00,,,0.00,Wunderground v.1.15,2013-11-27 05:55:00,